Location: Buttermere
(51.3333°N, 1.5167°W)
Time: 04:35:20
(UTC+00:00)

NOSS 2-2 (E) - Pass Details

Date: 18 September 2020
Orbit: 469 x 1737 km, 63.3° (Epoch: 19 October)

Event Time Altitude Azimuth Distance (km) Brightness Sun altitude
Rises 19:11:45 0° 201° (SSW) 2,499 6.8 -9.9°
Reaches altitude 10° 19:13:52 10° 192° (SSW) 1,633 5.7 -10.3°
Maximum altitude 19:17:08 37° 124° (ESE) 793 3.6 -10.8°
Drops below altitude 10° 19:20:51 10° 56° (NE) 1,857 5.6 -11.3°
Sets 19:23:24 0° 48° (NE) 2,904 6.7 -11.7°
